Back to catalog

COSMOS 397 DEB

AliveLEO
NORAD 5197·DEBRIS·🇷🇺 Russia

Launched Feb 25, 1971 from Baikonur Cosmodrome

Loading…

Next Passes (next 24 hours)

TLE

FreshSource: Space-Track

Epoch: Sep 14, 2026, 13:55 UTC

1 05197U 71015AT  26257.57992343  .00002027  00000-0  71105-3 0  9998
2 05197  65.5344 194.0179 0703780 323.5197  31.9784 13.48287143645858

Track COSMOS 397 DEB in real time with AllMySat

Download on the App Store